Date String (YYYY-MM-DD hh:mm:ss) UTC,Instrument flags,Ambient pressure (hPa),Sample flow (lpm),Bypass flow (lpm),Sample temperature (°C),Ambient temperature (°C),ASC tube jacket temperature (°C),LED temperature (°C),Box temperature (°C),Sample RH (%),Span deviation,Mass concentration (μg/m³),Mass concentration (μg/m³),Mass concentration (μg/m³)
DateTimeUTC,F1_M11,P_M11,Q1_M11,Q2_M11,T1_M11,T2_M11,T3_M11,T4_M11,T5_M11,U1_M11,ZSPAN_M11,X0_M11,X2_M11,X1_M11
2023-02-10 22:00:00,,0829.3,5.01,0.00,23.4,22.0,00.0,32.2,25.2,08.1,0000.0,0015.63,0003.92,0003.06
2023-02-10 22:01:00,,0829.3,4.99,0.00,23.4,22.0,00.0,32.2,25.2,08.0,0000.0,0014.93,0003.99,0003.11
2023-02-10 22:02:00,,0829.3,4.99,0.00,23.4,22.0,00.0,32.2,25.2,08.0,0000.0,0014.81,0004.05,0003.13
2023-02-10 22:03:00,,0829.4,5.02,0.00,23.4,22.1,00.0,32.2,25.3,07.5,0000.0,0013.89,0004.09,0003.15
2023-02-10 22:04:00,,0829.4,4.99,0.00,23.4,22.1,00.0,32.2,25.2,07.5,0000.0,0013.33,0004.13,0003.16
2023-02-10 22:05:00,,0829.4,4.96,0.00,23.4,22.1,00.0,32.2,25.3,07.7,0000.0,0012.55,0004.13,0003.18
2023-02-10 22:06:00,,0829.4,4.97,0.00,23.4,22.1,00.0,32.2,25.3,07.6,0000.0,0013.18,0004.11,0003.18
2023-02-10 22:07:00,,0829.4,5.02,0.00,23.4,22.1,00.0,32.2,25.3,07.4,0000.0,0014.17,0004.16,0003.19
2023-02-10 22:08:00,,0829.3,4.98,0.00,23.4,22.1,00.0,32.2,25.3,07.2,0000.0,0014.04,0004.18,0003.19
2023-02-10 22:09:00,,0829.4,4.99,0.00,23.4,22.1,00.0,32.2,25.3,07.4,0000.0,0014.20,0004.19,0003.19
2023-02-10 22:10:00,,0829.4,5.02,0.00,23.4,22.1,00.0,32.2,25.3,07.8,0000.0,0013.87,0004.24,0003.18
2023-02-10 22:11:00,,0829.3,4.98,0.00,23.4,22.1,00.0,32.3,25.3,07.9,0000.0,0013.58,0004.28,0003.19
2023-02-10 22:12:00,,0829.3,5.00,0.00,23.4,22.1,00.0,32.3,25.3,07.9,0000.0,0014.18,0004.25,0003.19
2023-02-10 22:13:00,,0829.3,4.96,0.00,23.5,22.1,00.0,32.3,25.3,08.2,0000.0,0014.91,0004.20,0003.20
2023-02-10 22:14:00,,0829.3,5.02,0.00,23.4,22.1,00.0,32.3,25.3,07.9,0000.0,0015.90,0004.22,0003.20
2023-02-10 22:15:00,,0829.3,5.03,0.00,23.4,22.1,00.0,32.3,25.3,07.6,0000.0,0016.04,0004.25,0003.20
2023-02-10 22:16:00,,0829.3,5.03,0.00,23.5,22.1,00.0,32.3,25.3,07.9,0000.0,0016.10,0004.27,0003.20
2023-02-10 22:17:00,,0829.3,5.01,0.00,23.5,22.1,00.0,32.3,25.3,08.2,0000.0,0016.01,0004.31,0003.20
2023-02-10 22:18:00,,0829.3,4.99,0.00,23.5,22.0,00.0,32.3,25.2,08.1,0000.0,0015.58,0004.33,0003.21
2023-02-10 22:19:00,,0829.3,5.02,0.00,23.4,22.0,00.0,32.3,25.2,07.8,0000.0,0014.89,0004.33,0003.22
2023-02-10 22:20:00,,0829.3,5.02,0.00,23.4,22.1,00.0,32.3,25.2,08.0,0000.0,0014.91,0004.32,0003.21
2023-02-10 22:21:00,,0829.3,4.98,0.00,23.4,22.1,00.0,32.3,25.3,08.5,0000.0,0014.95,0004.28,0003.22
2023-02-10 22:22:00,,0829.3,5.00,0.00,23.4,22.0,00.0,32.3,25.3,08.6,0000.0,0014.74,0004.27,0003.23
2023-02-10 22:23:00,,0829.3,5.03,0.00,23.4,22.0,00.0,32.3,25.3,08.5,0000.0,0015.17,0004.38,0003.24
2023-02-10 22:24:00,,0829.4,5.01,0.00,23.4,22.0,00.0,32.3,25.3,08.3,0000.0,0014.27,0004.44,0003.25
2023-02-10 22:25:00,,0829.3,5.02,0.00,23.4,22.0,00.0,32.3,25.3,08.5,0000.0,0013.17,0004.47,0003.27
2023-02-10 22:26:00,,0829.4,5.02,0.00,23.4,22.1,00.0,32.3,25.2,08.3,0000.0,0013.66,0004.49,0003.28
2023-02-10 22:27:00,,0829.4,4.99,0.00,23.4,22.1,00.0,32.3,25.3,08.4,0000.0,0013.81,0004.52,0003.30
2023-02-10 22:28:00,,0829.4,5.00,0.00,23.4,22.1,00.0,32.3,25.3,08.6,0000.0,0014.39,0004.59,0003.33
2023-02-10 22:29:00,,0829.4,4.98,0.00,23.5,22.1,00.0,32.3,25.3,08.7,0000.0,0013.87,0004.66,0003.35
2023-02-10 22:30:00,,0829.4,4.99,0.00,23.5,22.1,00.0,32.3,25.3,08.8,0000.0,0013.78,0004.67,0003.37
2023-02-10 22:31:00,,0829.3,5.01,0.00,23.5,22.2,00.0,32.3,25.3,08.6,0000.0,0013.06,0004.71,0003.39
2023-02-10 22:32:00,,0829.3,4.98,0.00,23.5,22.2,00.0,32.3,25.3,08.2,0000.0,0014.77,0004.78,0003.38
2023-02-10 22:33:00,,0829.3,5.02,0.00,23.5,22.2,00.0,32.3,25.3,08.1,0000.0,0016.81,0004.83,0003.40
2023-02-10 22:34:00,,0829.4,5.02,0.00,23.5,22.2,00.0,32.3,25.3,08.2,0000.0,0016.43,0004.78,0003.41
2023-02-10 22:35:00,,0829.3,5.00,0.00,23.5,22.2,00.0,32.3,25.3,08.3,0000.0,0016.45,0004.79,0003.42
2023-02-10 22:36:00,,0829.3,4.99,0.00,23.5,22.3,00.0,32.3,25.3,08.3,0000.0,0016.65,0004.83,0003.42
2023-02-10 22:37:00,,0829.3,4.98,0.00,23.5,22.3,00.0,32.3,25.3,08.2,0000.0,0016.11,0004.86,0003.43
2023-02-10 22:38:00,,0829.3,5.00,0.00,23.5,22.3,00.0,32.3,25.3,08.2,0000.0,0016.85,0004.92,0003.44
2023-02-10 22:39:00,,0829.3,5.01,0.00,23.5,22.2,00.0,32.3,25.3,08.0,0000.0,0019.08,0004.89,0003.44
2023-02-10 22:40:00,,0829.3,5.02,0.00,23.5,22.3,00.0,32.3,25.3,08.1,0000.0,0019.90,0004.89,0003.45
2023-02-10 22:41:00,,0829.3,5.00,0.00,23.5,22.3,00.0,32.3,25.4,08.5,0000.0,0019.94,0004.92,0003.46
2023-02-10 22:42:00,,0829.3,4.99,0.00,23.5,22.3,00.0,32.3,25.3,09.1,0000.0,0020.60,0004.97,0003.49
2023-02-10 22:43:00,,0829.3,4.99,0.00,23.5,22.3,00.0,32.3,25.4,09.3,0000.0,0018.74,0004.96,0003.52
2023-02-10 22:44:00,,0829.4,5.02,0.00,23.5,22.3,00.0,32.3,25.4,08.9,0000.0,0018.08,0004.91,0003.55
2023-02-10 22:45:00,,0829.3,4.96,0.00,23.5,22.3,00.0,32.3,25.4,09.0,0000.0,0019.35,0004.97,0003.57
2023-02-10 22:46:00,,0829.4,5.03,0.00,23.5,22.3,00.0,32.3,25.4,08.8,0000.0,0020.64,0005.01,0003.62
2023-02-10 22:47:00,,0829.2,4.96,0.00,23.6,22.3,00.0,32.3,25.4,08.9,0000.0,0021.05,0005.04,0003.65
2023-02-10 22:48:00,,0829.2,5.03,0.00,23.6,22.3,00.0,32.3,25.4,09.0,0000.0,0022.13,0005.08,0003.68
2023-02-10 22:49:00,,0829.3,4.97,0.00,23.6,22.3,00.0,32.3,25.4,08.9,0000.0,0022.47,0005.13,0003.72
2023-02-10 22:50:00,,0829.2,5.01,0.00,23.6,22.3,00.0,32.3,25.4,09.0,0000.0,0021.00,0005.23,0003.76
2023-02-10 22:51:00,,0829.2,4.98,0.00,23.6,22.3,00.0,32.4,25.4,09.0,0000.0,0019.95,0005.30,0003.79
2023-02-10 22:52:00,,0829.3,5.01,0.00,23.6,22.3,00.0,32.4,25.4,09.0,0000.0,0020.73,0005.37,0003.82
2023-02-10 22:53:00,,0829.3,4.97,0.00,23.6,22.3,00.0,32.4,25.5,09.1,0000.0,0020.93,0005.42,0003.83
2023-02-10 22:54:00,,0829.3,4.98,0.00,23.6,22.3,00.0,32.4,25.5,09.1,0000.0,0021.73,0005.46,0003.84
2023-02-10 22:55:00,,0829.3,5.01,0.00,23.6,22.3,00.0,32.4,25.5,09.0,0000.0,0022.01,0005.53,0003.83
2023-02-10 22:56:00,,0829.4,5.00,0.00,23.6,22.3,00.0,32.4,25.5,08.9,0000.0,0021.18,0005.55,0003.83
2023-02-10 22:57:00,,0829.3,4.99,0.00,23.6,22.4,00.0,32.4,25.5,08.8,0000.0,0020.98,0005.59,0003.83
2023-02-10 22:58:00,,0829.3,4.95,0.00,23.6,22.4,00.0,32.4,25.5,08.9,0000.0,0021.35,0005.61,0003.83
2023-02-10 22:59:00,,0829.4,4.98,0.00,23.6,22.4,00.0,32.4,25.5,08.9,0000.0,0021.39,0005.64,0003.83
